Regional Weather Roundup
Issued by NWS Kansas City/Pleasant Hill, MO

Home | Current Version | Previous Version | Text Only | Print | Product List | Glossary On
Versions: 1 2 3 4 5 6 7 8 9 10 11 12 13 14 15 16 17 18 19 20 21 22 23 24 25 26 27 28 29 30 31 32 33 34 35 36 37 38 39 40 41 42 43 44 45 46 47 48 49 50
000
ASUS43 KEAX 280304
RWREAX

WEATHER ROUNDUP FOR EASTERN KANSAS AND NORTHWEST MISSOURI
NATIONAL WEATHER SERVICE KANSAS CITY/PLEASANT HILL MO
1000 PM CDT WED MAY 27 2015

KSZ040-057-103>105-MOZ028-029-037-043-280400-
...KANSAS CITY METROPOLITAN AREA...

CITY           SKY/WX    TMP DP  RH WIND       PRES   REMARKS
K.C. INTL      MOCLDY    69  55  60 SE6       30.08R
K.C. DOWNTOWN  MOCLDY    75  53  46 SE5       30.07R
LEES SUMMIT    MOCLDY    71  54  54 SE6       30.09R
OLATHE - IXD   MOCLDY    70  56  61 SE5       30.10R
OLATHE - OJC   MOCLDY    70  56  61 SE3       30.08R HAZE
LAWRENCE       CLOUDY    66  59  78 CALM      30.08R

$$

MOZ001>008-011>017-020>025-030>033-038>040-044>046-053-054-280400-
...NORTHERN AND CENTRAL MISSOURI...

CITY           SKY/WX    TMP DP  RH WIND       PRES   REMARKS
ST. JOSEPH     MOCLDY    68  58  70 CALM      30.07R
MOSBY          MOCLDY    68  61  77 CALM      30.08R
WARRENSBURG    MOCLDY    68  59  73 SE3       30.09R
WHITEMAN AFB   PTCLDY    70  57  64 SE3       30.08R
CLINTON        MOCLDY    70  63  78 CALM      30.09S
SEDALIA        PTCLDY    69  60  73 SE3       30.11R
WARSAW         NOT AVBL
CHILLICOTHE      N/A     66  62  87 CALM      30.10R
KIRKSVILLE     PTCLDY    64  61  90 SE3       30.12R

$$

MOZ041-047>049-056>058-063>065-088>090-097-280400-
...EASTERN AND SOUTHERN MISSOURI...

CITY           SKY/WX    TMP DP  RH WIND       PRES   REMARKS
ST. LOUIS INTL PTCLDY    72  57  59 NE5       30.11R
SPIRIT OF STL  CLEAR     66  62  87 CALM      30.09R
COLUMBIA       CLEAR     68  60  75 E6        30.11R
JEFFERSON CITY CLEAR     68  60  75 CALM      30.09R
ROLLA          CLEAR     64  59  83 CALM      30.10R
OSAGE BEACH    CLEAR     64  57  77 CALM      30.10S
SPRINGFIELD    PTCLDY    69  63  81 CALM      30.09R
BRANSON        MOCLDY    72  64  78 CALM      30.11S
JOPLIN         CLOUDY    71  67  87 E3        30.07R
WEST PLAINS    CLOUDY    71  63  75 N5        30.13R

$$

IAZ060-094-KSZ022-034>040-054-083-096-NEZ052-066-093-280400-
...KANSAS...SOUTHEAST NEBRASKA AND IOWA...

CITY           SKY/WX    TMP DP  RH WIND       PRES   REMARKS
TOPEKA         CLOUDY    69  61  75 CALM      30.08R
MANHATTAN      CLOUDY    69  63  81 CALM      30.07R
EMPORIA        CLOUDY    70  62  76 E6        30.07R
CHANUTE        CLOUDY    72  66  81 E6        30.06R
WICHITA        CLOUDY    75  66  73 SE8       30.04R
OMAHA          CLOUDY    70  54  56 S6        30.05R
LINCOLN        CLOUDY    67  52  58 S8        30.07R
LAMONI         PTCLDY    74  56  53 S7        30.09R
DES MOINES     PTCLDY    72  59  63 S6        30.06R

$$



USA.gov is the U.S. government's official web portal to all federal, state and local government web resources and services.